CW5102 Weather Reports


Display with metric or nautical units.
time (UTC)temp
F
wind
direction
speed
MPH
gust
MPH
rain 1hr
in
rain 24hr
in
rain mn
in
humidity
%
barometer
mb
20260831080204 72 244 0.0 0.0 0.00 0.00 0.00 100 1006.5
20260831075204 72 233 0.0 0.0 0.00 0.00 0.00 100 1006.4
20260831074704 72 229 0.0 0.0 0.00 0.00 0.00 100 1006.5
20260831074204 73 247 0.0 0.0 0.00 0.00 0.00 100 1006.5
20260831073704 73 251 0.0 0.0 0.00 0.00 0.00 100 1006.5
20260831073202 73 189 0.0 0.0 0.00 0.00 0.00 100 1006.5
20260831072702 73 204 0.0 0.0 0.00 0.00 0.00 100 1006.6
20260831071702 73 224 0.0 0.0 0.00 0.00 0.00 100 1006.6
20260831071202 73 217 0.0 0.0 0.00 0.00 0.00 100 1006.7
20260831070703 73 220 0.0 0.0 0.00 0.00 0.00 100 1006.7
20260831070202 73 231 0.0 0.0 0.00 0.00 0.00 100 1006.7
20260831065702 73 219 0.0 0.0 0.00 0.00 0.00 100 1006.8
20260831065202 73 227 0.0 0.0 0.00 0.00 0.00 100 1006.8
20260831064702 73 217 0.0 0.0 0.00 0.00 0.00 100 1006.8
20260831064203 73 241 0.0 0.0 0.00 0.00 0.00 100 1006.9
20260831063202 73 237 0.0 0.0 0.00 0.00 0.00 100 1006.9
20260831062203 73 227 0.0 0.0 0.00 0.00 0.00 100 1007.1
20260831061703 73 202 0.0 0.0 0.00 0.00 0.00 100 1007.1
20260831061203 73 200 0.0 0.0 0.00 0.00 0.00 100 1007.2
20260831060702 73 209 0.0 0.0 0.00 0.00 0.00 100 1007.2
20260831060202 73 294 0.0 0.0 0.00 0.00 0.00 100 1007.2
20260831055702 73 207 0.0 0.0 0.00 0.00 0.00 100 1007.3
20260831055202 73 244 0.0 0.0 0.00 0.00 0.00 100 1007.4
20260831054702 73 200 0.0 0.0 0.00 0.00 0.00 100 1007.3
20260831054203 74 233 0.0 0.0 0.00 0.00 0.00 100 1007.4
20260831053702 74 205 0.0 0.0 0.00 0.00 0.00 100 1007.4
20260831053203 74 256 0.0 0.0 0.00 0.00 0.00 100 1007.5
20260831052702 74 251 0.0 0.0 0.00 0.00 0.00 100 1007.5
20260831052202 74 231 0.0 0.0 0.00 0.00 0.00 100 1007.5
20260831051702 74 231 0.0 0.0 0.00 0.00 0.00 100 1007.6
20260831051202 74 317 0.0 0.0 0.00 0.00 0.00 100 1007.8
20260831050702 74 249 0.0 0.0 0.00 0.00 0.00 100 1008.0
20260831045202 74 235 0.0 0.0 0.00 0.00 0.00 100 1008.0
20260831044702 74 237 0.0 0.0 0.00 0.00 0.00 99 1008.1
20260831043703 74 214 0.0 0.0 0.00 0.00 0.00 99 1008.1
20260831042702 74 232 0.0 0.0 0.00 0.00 0.00 98 1007.9
20260831042203 75 224 0.0 0.0 0.00 0.00 0.00 97 1008.0
20260831041702 75 219 0.0 0.0 0.00 0.00 0.00 97 1008.1
20260831041202 75 189 0.0 0.0 0.00 0.00 0.00 96 1008.1
20260831040702 75 206 0.0 0.0 0.00 0.00 0.00 96 1008.1
20260831040202 75 229 0.0 0.0 0.00 0.00 0.00 95 1008.1
20260831035203 75 247 0.0 0.0 0.00 0.00 0.00 94 1008.2
20260831034702 75 256 0.0 0.0 0.00 0.00 0.00 93 1008.2
20260831034203 75 211 0.0 0.0 0.00 0.00 0.00 93 1008.1
20260831033203 75 232 0.0 0.0 0.00 0.00 0.00 91 1008.1
20260831032702 75 204 0.0 0.0 0.00 0.00 0.00 91 1008.1
20260831032202 75 211 0.0 0.0 0.00 0.00 0.00 90 1008.0
20260831031202 76 261 0.0 0.0 0.00 0.00 0.00 88 1008.0
20260831030702 76 215 0.0 0.0 0.00 0.00 0.00 88 1008.0
20260831030202 76 211 0.0 0.0 0.00 0.00 0.00 87 1008.0
20260831025703 76 220 0.0 0.0 0.00 0.00 0.00 86 1007.7
20260831025203 76 178 0.0 0.0 0.00 0.00 0.00 86 1007.7
20260831024702 76 217 0.0 0.0 0.00 0.00 0.00 85 1007.7
20260831024203 76 229 0.0 0.0 0.00 0.00 0.00 85 1007.7
20260831023703 76 220 0.0 0.0 0.00 0.00 0.00 84 1007.7
20260831023203 76 227 0.0 0.0 0.00 0.00 0.00 84 1007.9
20260831022703 77 268 0.0 0.0 0.00 0.00 0.00 83 1007.9
20260831022202 77 232 0.0 0.0 0.00 0.00 0.00 82 1007.8
20260831021703 77 137 0.0 0.0 0.00 0.00 0.00 82 1007.9
20260831021203 77 229 0.0 0.0 0.00 0.00 0.00 82 1007.9
20260831020702 77 231 0.0 0.0 0.00 0.00 0.00 81 1007.9
20260831015703 78 241 0.0 0.0 0.00 0.00 0.00 80 1008.0
20260831015203 78 207 0.0 0.0 0.00 0.00 0.00 79 1008.0
20260831014704 78 219 0.0 0.0 0.00 0.00 0.00 79 1008.0
20260831014203 78 222 0.0 0.0 0.00 0.00 0.00 78 1008.0
20260831013702 78 228 0.0 0.0 0.00 0.00 0.00 77 1007.9
20260831012702 79 196 0.0 0.0 0.00 0.00 0.00 74 1007.9
20260831011203 79 262 0.0 0.0 0.00 0.00 0.00 74 1007.6
20260831010702 80 267 0.0 0.0 0.00 0.00 0.00 74 1007.5
20260831010203 80 247 0.0 0.0 0.00 0.00 0.00 74 1007.4
20260831005702 80 236 0.0 0.0 0.00 0.00 0.00 74 1007.3
20260831005202 80 209 0.0 0.0 0.00 0.00 0.00 74 1007.3
20260831004703 80 209 0.0 0.0 0.00 0.00 0.00 74 1007.3
20260831003702 81 218 0.0 0.0 0.00 0.00 0.00 74 1007.3
20260831003203 81 229 0.0 0.0 0.00 0.00 0.00 74 1007.2
20260831001203 82 212 0.0 0.0 0.00 0.00 0.00 75 1007.0
20260831000703 82 211 0.0 0.0 0.00 0.00 0.00 75 1007.0
20260831000203 82 212 0.0 0.0 0.00 0.00 0.00 76 1007.0
20260830235704 82 212 0.0 0.0 0.00 0.00 0.00 76 1007.0
20260830235203 82 211 0.0 0.0 0.00 0.00 0.00 76 1007.0
20260830234702 82 216 0.0 0.0 0.00 0.00 0.00 76 1006.9
20260830234203 82 315 0.0 0.0 0.00 0.00 0.00 77 1006.8
20260830233702 82 232 0.0 0.0 0.00 0.00 0.00 77 1006.9
20260830233202 82 181 0.0 0.0 0.00 0.00 0.00 79 1006.9
20260830232202 83 68 0.0 0.0 0.00 0.00 0.00 80 1007.0
20260830231703 83 188 0.0 0.0 0.00 0.00 0.00 80 1006.9
20260830231203 83 121 0.0 0.0 0.00 0.00 0.00 80 1006.9
20260830230203 82 173 0.0 0.0 0.00 0.00 0.00 79 1007.0
20260830225703 83 175 0.0 0.0 0.00 0.00 0.00 79 1007.1
20260830225202 83 163 0.0 0.0 0.00 0.00 0.00 79 1007.0
20260830224703 83 185 0.0 0.0 0.00 0.00 0.00 79 1007.0
20260830223203 83 102 0.0 0.0 0.00 0.00 0.00 80 1006.9
20260830222202 82 109 0.0 0.0 0.00 0.00 0.00 79 1006.9
20260830221703 82 272 0.0 0.0 0.00 0.00 0.00 79 1007.0
20260830221203 82 273 0.0 0.0 0.00 0.00 0.00 78 1007.1
20260830220203 83 41 0.0 0.0 0.00 0.00 0.00 78 1007.0
20260830215703 83 174 0.0 0.0 0.00 0.00 0.00 78 1007.0
20260830215203 83 144 0.0 0.0 0.00 0.00 0.00 77 1007.1
20260830214703 83 152 0.0 0.0 0.00 0.00 0.00 77 1007.1
20260830214203 83 267 0.0 0.0 0.00 0.00 0.00 77 1007.1
20260830213702 83 120 0.0 0.0 0.00 0.00 0.00 77 1007.2
20260830213202 83 96 0.0 0.0 0.00 0.00 0.00 77 1007.2
20260830212703 83 83 0.0 0.0 0.00 0.00 0.00 76 1007.3
20260830211702 83 258 0.0 0.0 0.00 0.00 0.00 76 1007.3
20260830210703 83 144 0.0 0.0 0.00 0.00 0.00 76 1007.5
20260830210203 83 125 0.0 0.0 0.00 0.00 0.00 76 1007.6
20260830205703 83 127 0.0 0.0 0.00 0.00 0.00 76 1007.6
20260830205202 83 193 0.0 0.0 0.00 0.00 0.00 76 1007.6
20260830204703 84 241 0.0 0.0 0.00 0.00 0.00 75 1007.6
20260830204203 84 108 0.0 0.0 0.00 0.00 0.00 74 1007.6
20260830203703 84 134 0.0 0.0 0.00 0.00 0.00 75 1007.6
20260830203203 84 162 0.0 0.0 0.00 0.00 0.00 76 1007.7
20260830202702 85 140 0.0 0.0 0.00 0.00 0.00 78 1007.7
20260830202203 84 172 0.0 0.0 0.00 0.00 0.00 77 1007.8
20260830201703 85 130 0.0 0.0 0.00 0.00 0.00 79 1007.8
20260830201203 85 261 0.0 0.0 0.00 0.00 0.00 80 1007.9
20260830200703 84 144 0.0 0.0 0.00 0.00 0.00 81 1007.7
20260830200203 84 160 0.0 0.0 0.00 0.00 0.00 82 1007.9
20260830195703 84 184 0.0 0.0 0.00 0.00 0.00 85 1007.7
20260830195203 84 161 0.0 0.0 0.00 0.00 0.00 85 1007.6
20260830194703 83 217 0.0 0.0 0.00 0.00 0.00 88 1007.7
20260830194203 83 102 0.0 0.0 0.00 0.00 0.00 89 1007.8
20260830193702 83 106 0.0 0.0 0.00 0.00 0.00 89 1007.8
20260830193203 83 87 0.0 0.0 0.00 0.00 0.00 92 1008.0
20260830192703 83 91 0.0 0.0 0.00 0.00 0.00 93 1007.9
20260830192203 82 73 0.0 0.0 0.00 0.00 0.00 94 1007.7
20260830191703 82 134 0.0 0.0 0.00 0.00 0.00 96 1007.6
20260830191203 82 215 0.0 0.0 0.00 0.00 0.00 97 1008.0
20260830190704 82 192 0.0 0.0 0.00 0.00 0.00 98 1008.1
20260830190203 81 22 0.0 0.0 0.00 0.00 0.00 100 1008.1
20260830185703 81 94 0.0 0.0 0.00 0.00 0.00 100 1008.0
20260830185204 81 117 0.0 0.0 0.00 0.00 0.00 100 1008.0
20260830183703 80 225 0.0 0.0 0.00 0.00 0.00 100 1008.8
20260830183203 80 190 0.0 0.0 0.00 0.00 0.00 100 1008.6
20260830182703 80 214 0.0 0.0 0.00 0.00 0.00 100 1008.7
20260830182204 79 131 0.0 0.0 0.00 0.00 0.00 100 1008.6
20260830181703 79 185 0.0 0.0 0.00 0.00 0.00 100 1008.4
20260830181203 78 109 0.0 0.0 0.00 0.00 0.00 100 1008.5
20260830180203 78 87 0.0 0.0 0.00 0.00 0.00 100 1008.6
20260830175703 77 146 0.0 0.0 0.00 0.00 0.00 100 1008.6
20260830175203 77 36 0.0 0.0 0.00 0.00 0.00 100 1008.6
20260830174703 77 85 0.0 0.0 0.00 0.00 0.00 100 1009.0
20260830174204 76 147 0.0 0.0 0.00 0.00 0.00 100 1009.0
20260830172703 76 157 0.0 0.0 0.00 0.00 0.00 100 1009.2
20260830171703 76 174 0.0 0.0 0.00 0.00 0.00 100 1009.2
20260830171203 76 155 0.0 0.0 0.00 0.00 0.00 100 1009.3
20260830170703 76 126 0.0 0.0 0.00 0.00 0.00 100 1009.3
20260830170203 76 190 0.0 0.0 0.00 0.00 0.00 100 1009.2
20260830165703 76 173 0.0 0.0 0.00 0.00 0.00 100 1009.2
20260830165203 76 111 0.0 0.0 0.00 0.00 0.00 100 1009.2
20260830164703 76 92 0.0 0.0 0.00 0.00 0.00 100 1009.2
20260830164203 76 109 0.0 0.0 0.00 0.00 0.00 100 1009.2
20260830163703 76 111 0.0 0.0 0.00 0.00 0.00 100 1009.0
20260830163203 75 104 0.0 0.0 0.00 0.00 0.00 100 1009.0
20260830162704 75 98 0.0 0.0 0.00 0.00 0.00 100 1008.9
20260830162203 75 98 0.0 0.0 0.00 0.00 0.00 100 1008.6
20260830161203 74 90 0.0 0.0 0.00 0.00 0.00 100 1008.4
20260830160703 74 120 0.0 0.0 0.00 0.00 0.00 100 1008.4
20260830160203 74 120 0.0 0.0 0.00 0.00 0.00 100 1008.3
20260830155704 74 124 0.0 0.0 0.00 0.00 0.00 100 1008.4
20260830155203 74 112 0.0 0.0 0.00 0.00 0.00 100 1008.3
20260830154703 74 123 0.0 0.0 0.00 0.00 0.00 100 1008.3
20260830154203 74 175 0.0 0.0 0.00 0.00 0.00 100 1008.4
20260830153703 74 149 0.0 0.0 0.00 0.00 0.00 100 1008.6
20260830153203 74 155 0.0 0.0 0.00 0.00 0.00 100 1008.6
20260830152703 74 101 0.0 0.0 0.00 0.00 0.00 100 1008.4
20260830152203 73 151 0.0 0.0 0.00 0.00 0.00 100 1008.4
20260830151703 73 152 0.0 0.0 0.00 0.00 0.00 100 1008.7
20260830151203 73 89 0.0 0.0 0.00 0.00 0.00 100 1008.5
20260830150703 72 84 0.0 0.0 0.00 0.00 0.00 100 1008.5
20260830150203 72 82 0.0 0.0 0.00 0.00 0.00 100 1008.4
20260830145703 72 107 0.0 0.0 0.00 0.00 0.00 100 1008.6
20260830145203 71 107 0.0 0.0 0.00 0.00 0.00 100 1008.5
20260830144704 71 109 0.0 0.0 0.00 0.00 0.00 100 1008.2
20260830144203 71 165 0.0 0.0 0.00 0.00 0.00 100 1008.2
20260830143704 71 145 0.0 0.0 0.00 0.00 0.00 100 1008.3
20260830143204 71 144 0.0 0.0 0.00 0.00 0.00 100 1008.3
20260830142703 71 144 0.0 0.0 0.00 0.00 0.00 100 1008.4
20260830142203 70 144 0.0 0.0 0.00 0.00 0.00 100 1008.4
20260830141703 70 152 0.0 0.0 0.00 0.00 0.00 100 1008.4
20260830141203 70 149 0.0 0.0 0.00 0.00 0.00 100 1008.4
20260830140704 70 111 0.0 0.0 0.00 0.00 0.00 100 1008.4
20260830140203 70 93 0.0 0.0 0.00 0.00 0.00 100 1008.6
20260830135703 70 132 0.0 0.0 0.00 0.00 0.00 100 1008.9
20260830135204 70 123 0.0 0.0 0.00 0.00 0.00 100 1009.0
20260830134704 69 123 0.0 0.0 0.00 0.00 0.00 100 1009.0
20260830134203 69 123 0.0 0.0 0.00 0.00 0.00 100 1008.8
20260830133703 69 123 0.0 0.0 0.00 0.00 0.00 100 1008.7
20260830133203 69 123 0.0 0.0 0.00 0.00 0.00 100 1008.6
20260830132703 69 113 0.0 0.0 0.00 0.00 0.00 100 1008.5
20260830132203 69 125 0.0 0.0 0.00 0.00 0.00 100 1008.5
20260830131703 69 125 0.0 0.0 0.00 0.00 0.00 100 1008.6
20260830131203 69 125 0.0 0.0 0.00 0.00 0.00 100 1008.5
20260830130703 69 125 0.0 0.0 0.00 0.00 0.00 100 1008.5
20260830130204 69 101 0.0 0.0 0.00 0.00 0.00 100 1008.5
20260830125703 69 91 0.0 0.0 0.00 0.00 0.00 100 1008.4
20260830125203 68 91 0.0 0.0 0.00 0.00 0.00 100 1008.3
20260830124703 68 91 0.0 0.0 0.00 0.00 0.00 100 1008.5
20260830124204 68 91 0.0 0.0 0.00 0.00 0.00 100 1008.4
20260830123704 68 91 0.0 0.0 0.00 0.00 0.00 100 1008.5
20260830122203 68 91 0.0 0.0 0.00 0.00 0.00 100 1008.5
20260830121703 68 91 0.0 0.0 0.00 0.00 0.00 100 1008.3
20260830121204 68 180 0.0 0.0 0.00 0.00 0.00 100 1008.4
20260830120703 68 180 0.0 0.0 0.00 0.00 0.00 100 1008.4
20260830120203 68 180 0.0 0.0 0.00 0.00 0.00 100 1008.5
20260830115703 68 180 0.0 0.0 0.00 0.01 0.00 100 1008.4
20260830115203 68 180 0.0 0.0 0.00 0.02 0.00 100 1008.2
20260830114703 67 179 0.0 0.0 0.00 0.02 0.00 100 1008.2
20260830114204 67 127 0.0 0.0 0.00 0.05 0.00 100 1008.0
20260830112703 67 127 0.0 0.0 0.00 0.08 0.00 100 1008.0
20260830112203 67 127 0.0 0.0 0.00 0.09 0.00 100 1007.9
20260830111704 67 127 0.0 0.0 0.00 0.10 0.00 100 1008.0
20260830111204 67 127 0.0 0.0 0.00 0.10 0.00 100 1008.0
20260830110203 67 127 0.0 0.0 0.00 0.11 0.00 100 1008.4
20260830105703 68 127 0.0 0.0 0.00 0.12 0.00 100 1008.5
20260830105203 68 127 0.0 0.0 0.00 0.14 0.00 100 1008.4
20260830104703 68 127 0.0 0.0 0.00 0.15 0.00 100 1008.5
20260830104203 68 127 0.0 0.0 0.00 0.16 0.00 100 1008.6
20260830103704 68 127 0.0 0.0 0.00 0.17 0.00 100 1008.4
20260830103203 68 127 0.0 0.0 0.00 0.18 0.00 100 1008.5
20260830102703 68 127 0.0 0.0 0.00 0.19 0.00 100 1008.4
20260830102204 68 127 0.0 0.0 0.00 0.20 0.00 100 1008.4
20260830101703 68 127 0.0 0.0 0.00 0.21 0.00 100 1008.4
20260830100704 68 127 0.0 0.0 0.00 0.22 0.00 100 1008.7
20260830100204 68 127 0.0 0.0 0.00 0.23 0.00 100 1008.5
20260830095203 68 127 0.0 0.0 0.00 0.24 0.00 100 1008.3
20260830094703 68 127 0.0 0.0 0.00 0.24 0.00 100 1008.1
20260830094204 68 127 0.0 0.0 0.00 0.25 0.00 100 1008.2
20260830093704 68 127 0.0 0.0 0.00 0.25 0.00 100 1008.1
20260830093204 68 128 0.0 0.0 0.00 0.26 0.00 100 1008.0
20260830092703 68 128 0.0 0.0 0.00 0.28 0.00 100 1007.9
20260830092204 68 128 0.0 0.0 0.00 0.28 0.00 100 1008.0
20260830091704 68 128 0.0 0.0 0.00 0.28 0.00 100 1008.1
20260830091204 68 128 0.0 0.0 0.00 0.29 0.00 100 1008.2
20260830090704 68 127 0.0 0.0 0.00 0.29 0.00 100 1008.3
20260830090203 68 128 0.0 0.0 0.00 0.30 0.00 100 1008.4
20260830085703 68 128 0.0 0.0 0.00 0.30 0.00 100 1008.2
20260830085203 68 128 0.0 0.0 0.00 0.30 0.00 100 1008.3
20260830084703 68 128 0.0 0.0 0.00 0.30 0.00 100 1008.1
20260830084203 68 128 0.0 0.0 0.00 0.30 0.00 100 1008.3
20260830083703 68 128 0.0 0.0 0.00 0.30 0.00 100 1008.3
20260830083203 68 128 0.0 0.0 0.00 0.30 0.00 100 1008.4
20260830082703 68 128 0.0 0.0 0.00 0.30 0.00 100 1008.4
20260830082203 69 128 0.0 0.0 0.00 0.30 0.00 100 1008.4
20260830081204 69 128 0.0 0.0 0.00 0.30 0.00 100 1008.3
20260830080703 69 128 0.0 0.0 0.00 0.30 0.00 100 1008.4